Date String (YYYY-MM-DD hh:mm:ss) UTC,Instrument flags,Ambient pressure (hPa),Sample flow (lpm),Bypass flow (lpm),Sample temperature (°C),Ambient temperature (°C),ASC tube jacket temperature (°C),LED temperature (°C),Box temperature (°C),Sample RH (%),Span deviation,Mass concentration (μg/m³),Mass concentration (μg/m³),Mass concentration (μg/m³)
DateTimeUTC,F1_M11,P_M11,Q1_M11,Q2_M11,T1_M11,T2_M11,T3_M11,T4_M11,T5_M11,U1_M11,ZSPAN_M11,X0_M11,X2_M11,X1_M11
2023-01-23 02:00:00,,0821.1,4.99,0.00,24.8,23.1,00.0,33.7,26.6,09.3,0000.0,0015.98,0007.61,0006.90
2023-01-23 02:01:00,,0821.1,5.02,0.00,24.8,23.1,00.0,33.7,26.6,09.4,0000.0,0016.56,0007.68,0006.95
2023-01-23 02:02:00,,0821.1,4.99,0.00,24.8,23.1,00.0,33.6,26.6,09.4,0000.0,0016.43,0007.76,0007.01
2023-01-23 02:03:00,,0821.1,5.00,0.00,24.8,23.1,00.0,33.6,26.6,09.4,0000.0,0016.31,0007.78,0007.05
2023-01-23 02:04:00,,0821.1,4.99,0.00,24.8,23.1,00.0,33.6,26.6,09.4,0000.0,0016.72,0007.83,0007.06
2023-01-23 02:05:00,,0821.1,5.02,0.00,24.8,23.0,00.0,33.6,26.6,09.4,0000.0,0016.65,0007.90,0007.08
2023-01-23 02:06:00,,0821.1,5.02,0.00,24.8,23.0,00.0,33.6,26.6,09.4,0000.0,0018.12,0007.97,0007.09
2023-01-23 02:07:00,,0821.1,5.00,0.00,24.8,23.0,00.0,33.6,26.6,09.4,0000.0,0017.58,0008.01,0007.09
2023-01-23 02:08:00,,0821.1,5.01,0.00,24.8,23.0,00.0,33.6,26.6,09.4,0000.2,0018.47,0008.07,0007.08
2023-01-23 02:09:00,,0821.1,5.01,0.00,24.7,23.0,00.0,33.6,26.6,09.4,0001.0,0018.85,0008.07,0007.07
2023-01-23 02:10:00,,0821.1,5.02,0.00,24.7,23.0,00.0,33.6,26.6,09.4,0000.3,0019.00,0008.10,0007.07
2023-01-23 02:11:00,,0821.2,4.98,0.00,24.7,23.0,00.0,33.5,26.6,09.4,0000.0,0019.34,0008.09,0007.06
2023-01-23 02:12:00,,0821.1,5.00,0.00,24.7,23.0,00.0,33.5,26.5,09.4,0000.0,0019.66,0008.08,0007.03
2023-01-23 02:13:00,,0821.1,5.00,0.00,24.7,23.0,00.0,33.5,26.5,09.5,0000.0,0020.39,0008.05,0006.99
2023-01-23 02:14:00,,0821.2,4.99,0.00,24.7,23.0,00.0,33.5,26.5,09.5,0000.0,0021.21,0008.06,0006.97
2023-01-23 02:15:00,,0821.2,4.99,0.00,24.7,22.9,00.0,33.5,26.5,09.5,0000.0,0021.77,0008.03,0006.95
2023-01-23 02:16:00,,0821.1,5.01,0.00,24.7,22.9,00.0,33.5,26.5,09.5,0000.0,0023.04,0008.04,0006.92
2023-01-23 02:17:00,,0821.1,5.00,0.00,24.7,22.9,00.0,33.5,26.5,09.5,0000.0,0022.65,0008.02,0006.90
2023-01-23 02:18:00,,0821.1,5.01,0.00,24.7,22.9,00.0,33.4,26.5,09.5,0000.0,0022.33,0008.00,0006.90
2023-01-23 02:19:00,,0821.1,5.00,0.00,24.6,22.9,00.0,33.4,26.5,09.5,0000.0,0022.37,0008.00,0006.89
2023-01-23 02:20:00,,0821.1,5.00,0.00,24.6,22.9,00.0,33.4,26.5,09.5,0000.0,0022.84,0008.02,0006.89
2023-01-23 02:21:00,,0821.1,5.02,0.00,24.6,22.9,00.0,33.4,26.4,09.6,0000.0,0023.69,0008.04,0006.89
2023-01-23 02:22:00,,0821.1,5.01,0.00,24.6,22.9,00.0,33.4,26.4,09.6,0000.0,0023.64,0008.11,0006.89
2023-01-23 02:23:00,,0821.1,4.99,0.00,24.6,22.9,00.0,33.4,26.4,09.6,0000.0,0023.79,0008.15,0006.87
2023-01-23 02:24:00,,0821.2,4.99,0.00,24.6,22.9,00.0,33.4,26.4,09.6,0000.0,0023.63,0008.16,0006.84
2023-01-23 02:25:00,,0821.2,5.01,0.00,24.6,22.9,00.0,33.4,26.4,09.6,0000.0,0022.91,0008.15,0006.83
2023-01-23 02:26:00,,0821.2,4.99,0.00,24.6,22.9,00.0,33.4,26.4,09.6,0000.0,0021.78,0008.10,0006.80
2023-01-23 02:27:00,,0821.2,4.99,0.00,24.6,22.9,00.0,33.4,26.4,09.6,0000.0,0021.37,0008.09,0006.78
2023-01-23 02:28:00,,0821.2,5.01,0.00,24.6,22.9,00.0,33.4,26.4,09.6,0000.0,0020.85,0008.04,0006.78
2023-01-23 02:29:00,,0821.2,5.00,0.00,24.6,22.9,00.0,33.3,26.4,09.6,0000.0,0021.33,0008.03,0006.77
2023-01-23 02:30:00,,0821.2,5.01,0.00,24.6,22.9,00.0,33.3,26.4,09.6,0000.0,0020.99,0008.02,0006.77
2023-01-23 02:31:00,,0821.3,5.01,0.00,24.5,22.9,00.0,33.3,26.3,09.6,0000.0,0021.33,0008.00,0006.75
2023-01-23 02:32:00,,0821.3,4.99,0.00,24.5,22.9,00.0,33.3,26.3,09.6,0000.0,0021.26,0008.01,0006.70
2023-01-23 02:33:00,,0821.3,4.98,0.00,24.5,22.9,00.0,33.3,26.3,09.7,0000.0,0023.18,0008.01,0006.67
2023-01-23 02:34:00,,0821.4,5.05,0.00,24.5,22.9,00.0,33.3,26.3,09.7,0000.0,0023.92,0007.94,0006.65
2023-01-23 02:35:00,,0821.4,4.96,0.00,24.5,22.9,00.0,33.3,26.3,09.7,0000.0,0023.96,0007.98,0006.65
2023-01-23 02:36:00,,0821.4,5.01,0.00,24.5,22.9,00.0,33.3,26.3,09.7,0000.0,0024.86,0008.00,0006.64
2023-01-23 02:37:00,,0821.4,4.98,0.00,24.5,22.9,00.0,33.3,26.3,09.7,0000.0,0026.50,0008.02,0006.63
2023-01-23 02:38:00,,0821.4,5.00,0.00,24.5,22.9,00.0,33.3,26.3,09.7,0000.0,0026.89,0008.05,0006.62
2023-01-23 02:39:00,,0821.4,4.99,0.00,24.5,22.9,00.0,33.2,26.3,09.7,0000.1,0027.87,0008.14,0006.60
2023-01-23 02:40:00,,0821.4,5.00,0.00,24.4,22.9,00.0,33.2,26.3,09.7,0000.5,0029.40,0008.20,0006.58
2023-01-23 02:41:00,,0821.4,5.00,0.00,24.4,22.9,00.0,33.2,26.3,09.7,0001.1,0031.24,0008.22,0006.57
2023-01-23 02:42:00,,0821.4,5.01,0.00,24.4,22.9,00.0,33.2,26.2,09.8,0000.9,0030.58,0008.23,0006.55
2023-01-23 02:43:00,,0821.5,4.99,0.00,24.4,22.9,00.0,33.2,26.2,09.8,0000.6,0029.63,0008.19,0006.55
2023-01-23 02:44:00,,0821.4,5.01,0.00,24.4,22.9,00.0,33.2,26.2,09.8,0000.5,0027.56,0008.15,0006.55
2023-01-23 02:45:00,,0821.5,4.99,0.00,24.4,22.9,00.0,33.2,26.2,09.8,0000.1,0027.64,0008.16,0006.55
2023-01-23 02:46:00,,0821.5,5.02,0.00,24.4,22.9,00.0,33.2,26.2,09.8,0000.2,0027.34,0008.08,0006.54
2023-01-23 02:47:00,,0821.4,5.00,0.00,24.4,22.9,00.0,33.2,26.2,09.8,0001.1,0028.12,0008.07,0006.55
2023-01-23 02:48:00,,0821.4,5.00,0.00,24.4,22.9,00.0,33.2,26.2,09.8,0001.6,0027.05,0008.08,0006.57
2023-01-23 02:49:00,,0821.4,5.00,0.00,24.4,22.9,00.0,33.2,26.2,09.8,0002.0,0026.07,0008.02,0006.57
2023-01-23 02:50:00,,0821.5,4.99,0.00,24.4,22.9,00.0,33.2,26.2,09.8,0001.7,0024.33,0007.91,0006.57
2023-01-23 02:51:00,,0821.5,4.99,0.00,24.4,22.9,00.0,33.2,26.2,09.8,0000.5,0022.77,0007.82,0006.57
2023-01-23 02:52:00,,0821.5,5.00,0.00,24.4,22.9,00.0,33.2,26.2,09.7,0000.9,0021.84,0007.78,0006.58
2023-01-23 02:53:00,,0821.5,4.99,0.00,24.3,22.9,00.0,33.2,26.2,09.7,0001.1,0021.56,0007.74,0006.59
2023-01-23 02:54:00,,0821.5,5.00,0.00,24.3,22.9,00.0,33.2,26.2,09.7,0001.2,0021.82,0007.74,0006.59
2023-01-23 02:55:00,,0821.4,4.99,0.00,24.3,22.9,00.0,33.2,26.2,09.8,0000.7,0021.92,0007.72,0006.61
2023-01-23 02:56:00,,0821.5,4.99,0.00,24.3,22.8,00.0,33.1,26.2,09.8,0000.0,0020.74,0007.70,0006.63
2023-01-23 02:57:00,,0821.5,4.99,0.00,24.3,22.8,00.0,33.1,26.1,09.8,0000.3,0021.00,0007.70,0006.66
2023-01-23 02:58:00,,0821.6,5.01,0.00,24.3,22.8,00.0,33.1,26.2,09.8,0000.4,0020.07,0007.72,0006.68
2023-01-23 02:59:00,,0821.6,4.99,0.00,24.3,22.8,00.0,33.1,26.1,09.8,0000.1,0019.55,0007.70,0006.68
